Location: Unspecified
(0.0000°N, 0.0000°E)
Time: 06:10:59
(UTC+00:00)

Transit 4A - Pass Details

Date: 05 October 2020
Orbit: 862 x 982 km, 66.8° (Epoch: 28 October)

Event Time Altitude Azimuth Distance (km) Brightness Sun altitude
Rises 05:37:13 0° 13° (NNE) 3,645 11.1 -2.8°
Reaches altitude 10° 05:41:02 10° 36° (NE) 2,683 10.8 -1.8°
Maximum altitude 05:44:27 15° 69° (ENE) 2,313 11.2 -1.0°
Drops below altitude 10° 05:47:49 10° 103° (ESE) 2,647 12.4 -0.1°
Sets 05:51:30 0° 125° (SE) 3,567 12.2 0.8°
